[[{"header":{"parameterUnit":"m.s-1","parameterCategory":1,"la1":30.2991,"la2":30.254,"lo1":-89.0895,"lo2":-89.0444,"dy":0.0017,"dx":0.0017,"nx":28,"ny":28,"refTime":"2024-05-10T21:00:00:Z","depth":0,"parameterNumber":2,"parameterNumberName":"U-component_of_WINDS"},"data":[0,0,0,0,0,0,0,0,0,0,0,0,0,0,0,0,0,0,0,0,0,0,0,0,0,0,0,0,0,0,0,0,0,0,0,0,0,0,0,0,0,0,0,0,0,0,0,0,0,0,0,0,0,0,0,0,0,0,-1.3515,-1.3515,0,-1.3543,-1.3543,-1.3543,-1.3545,-1.3545,-1.3544,-1.3544,-1.3571,-1.3572,-1.3573,0,0,0,0,0,0,0,0,0,0,0,0,0,-1.3461,-1.3462,-1.3515,-1.3515,-1.3516,-1.3543,-1.3543,-1.3543,-1.3545,-1.3545,-1.3544,-1.3544,-1.3571,-1.3572,-1.3573,0,0,0,0,0,0,0,0,0,0,0,0,0,-1.3486,-1.3462,-1.3515,-1.352,-1.352,-1.3543,-1.3543,-1.3544,-1.3545,-1.3545,-1.3544,-1.3544,-1.357,-1.3572,-1.3573,-1.3592,0,0,-1.3578,-1.3579,0,0,0,0,0,0,0,0,-1.3484,-1.3488,-1.3519,-1.3519,-1.352,-1.354,-1.3534,-1.356,-1.3545,-1.3536,-1.3544,-1.3543,-1.3561,-1.3563,-1.3569,-1.3593,-1.3595,-1.3578,-1.3579,-1.358,-1.358,0,0,0,0,0,0,0,-1.3483,-1.3487,-1.3526,-1.3519,-1.352,-1.352,-1.3523,-1.3539,-1.3551,-1.3536,-1.3537,-1.354,-1.3561,-1.3568,-1.357,-1.3595,-1.3578,-1.3579,-1.358,-1.3581,-1.3634,-1.3634,0,0,0,0,0,0,-1.348,-1.3485,-1.3525,-1.3527,-1.3501,-1.3521,-1.3524,-1.3534,-1.355,-1.3553,-1.354,-1.354,-1.3566,-1.3568,-1.3571,-1.3593,-1.358,-1.3581,-1.3582,-1.3633,-1.3634,-1.3634,0,0,0,0,0,0,-1.3479,-1.3484,-1.3524,-1.3506,-1.3511,-1.3522,-1.3533,-1.3535,-1.3542,-1.3553,-1.3555,-1.3545,-1.3565,-1.3569,-1.3587,-1.3594,-1.3582,-1.3583,-1.3633,-1.3634,-1.3634,-1.3638,0,0,0,0,0,0,-1.3478,-1.3483,-1.3491,-1.3506,-1.3512,-1.354,-1.3534,-1.3536,-1.3544,-1.3544,-1.3558,-1.356,-1.3565,-1.3584,-1.3588,-1.3596,-1.3584,-1.3632,-1.3633,-1.3634,-1.3637,-1.3639,-1.364,0,0,0,0,0,-1.3476,-1.3491,-1.3492,-1.3497,-1.3522,-1.354,-1.3543,-1.3549,-1.3545,-1.3552,-1.356,-1.356,-1.3593,-1.3586,-1.359,-1.3599,-1.3632,-1.3633,-1.3634,-1.3636,-1.3638,-1.364,0,0,0,0,0,0,-1.3477,-1.3494,-1.3494,-1.3515,-1.3526,-1.354,-1.355,-1.3551,-1.3563,-1.3563,-1.3569,-1.3572,-1.3589,-1.3596,-1.3588,-1.3617,-1.3612,-1.3614,-1.3612,-1.3614,-1.3615,-1.3613,-1.3586,0,0,0,0,0,-1.348,-1.3494,-1.3507,-1.3524,-1.353,-1.3539,-1.3547,-1.355,-1.3562,-1.3566,-1.3575,-1.3586,-1.3598,-1.3607,-1.3619,-1.3638,-1.364,-1.3646,-1.3647,-1.3648,-1.365,-1.3659,-1.3661,-1.3638,-1.3638,-1.3638,0,0,-1.3486,-1.3496,-1.3505,-1.3525,-1.3534,-1.3547,-1.3543,-1.3557,-1.3567,-1.3569,-1.3586,-1.3592,-1.3604,-1.3622,-1.3631,-1.3628,-1.3656,-1.365,-1.365,-1.3651,-1.366,-1.3662,-1.3664,-1.3639,-1.3639,-1.3639,0,0,-1.3503,-1.3513,-1.3528,-1.3537,-1.355,-1.3556,-1.3559,-1.3573,-1.3578,-1.3595,-1.3596,-1.3607,-1.3629,-1.3637,-1.3644,-1.3663,-1.3663,-1.3667,-1.3674,-1.3683,-1.3684,-1.3686,-1.3692,-1.3694,-1.3668,-1.3668,-1.3668,0,-1.3509,-1.3529,-1.3535,-1.3549,-1.3557,-1.356,-1.3574,-1.3582,-1.3599,-1.3604,-1.3601,-1.3627,-1.3636,-1.3655,-1.366,-1.3666,-1.3669,-1.3665,-1.3684,-1.3685,-1.3687,-1.3692,-1.3695,-1.3668,-1.3668,-1.3668,-1.3668,0,-1.3534,-1.3549,-1.3559,-1.3575,-1.3584,-1.3598,-1.3605,-1.3614,-1.3616,-1.3622,-1.3638,-1.3648,-1.3662,-1.3667,-1.367,-1.3686,-1.3684,-1.3683,-1.3677,-1.3689,-1.3694,-1.3697,-1.3669,-1.3669,-1.3669,-1.3669,0,0,-1.3554,-1.3572,-1.3576,-1.3583,-1.3597,-1.3608,-1.3621,-1.3635,-1.3641,-1.3652,-1.3663,-1.3681,-1.3679,-1.3687,-1.369,-1.3698,-1.371,-1.3695,-1.3695,-1.3697,-1.3728,-1.3729,-1.3731,-1.3711,-1.3711,-1.3711,-1.3727,0,-1.3572,-1.3597,-1.3602,-1.3623,-1.3635,-1.3637,-1.3648,-1.3658,-1.3663,-1.3674,-1.3679,-1.3692,-1.3689,-1.3693,-1.3701,-1.3707,-1.3717,-1.3706,-1.372,-1.372,-1.3716,-1.3734,-1.3735,-1.3749,-1.3729,-1.3729,-1.373,0,-1.3597,-1.3608,-1.3631,-1.3642,-1.3647,-1.3658,-1.367,-1.368,-1.369,-1.3694,-1.3702,-1.3704,-1.3717,-1.3711,-1.3728,-1.3721,-1.3726,-1.373,-1.3731,-1.3732,-1.3725,-1.3735,-1.3754,-1.3756,-1.3733,-1.3733,-1.3732,0,-1.3608,-1.3629,-1.3644,-1.365,-1.3664,-1.3671,-1.3677,-1.3687,-1.3694,-1.3705,-1.3709,-1.3721,-1.3727,-1.3735,-1.374,-1.3736,-1.3756,-1.3751,-1.3759,-1.3758,-1.3763,-1.3762,-1.3782,-1.3767,-1.3767,-1.3767,-1.3767,0,-1.3627,-1.364,-1.3649,-1.3659,-1.3673,-1.3678,-1.3692,-1.3698,-1.3706,-1.3716,-1.3718,-1.3727,-1.3733,-1.3743,-1.3747,-1.3759,-1.3763,-1.3765,-1.3765,-1.3764,-1.3764,-1.3768,-1.3767,-1.3768,-1.3768,-1.3768,-1.3768,0,-1.3642,-1.3648,-1.3665,-1.3677,-1.368,-1.369,-1.3699,-1.3708,-1.3713,-1.3725,-1.3729,-1.3736,-1.3748,-1.3753,-1.3767,-1.3769,-1.3784,-1.3784,-1.3781,-1.3781,-1.3787,-1.3786,-1.381,-1.3813,-1.3797,-1.3797,-1.3797,0,-1.3653,-1.3664,-1.3676,-1.3683,-1.3689,-1.37,-1.3707,-1.3712,-1.372,-1.3731,-1.3738,-1.375,-1.3759,-1.3777,-1.3783,-1.3794,-1.3794,-1.3802,-1.3796,-1.3794,-1.3793,-1.3792,-1.3793,-1.3803,-1.3803,-1.3803,-1.3803,0,-1.3673,-1.3675,-1.3686,-1.3698,-1.3706,-1.3715,-1.3724,-1.373,-1.3736,-1.3744,-1.3756,-1.3763,-1.3777,-1.3788,-1.3798,-1.3804,-1.3804,-1.3805,-1.3807,-1.3806,-1.3803,-1.3803,-1.3783,-1.3804,-1.3804,-1.3804,-1.3804,-1.3804,-1.3686,-1.3694,-1.3704,-1.3716,-1.3723,-1.3731,-1.3739,-1.3745,-1.3755,-1.3767,-1.3769,-1.3781,-1.3789,-1.3804,-1.3809,-1.3818,-1.3816,-1.382,-1.382,-1.3821,-1.3821,-1.3802,-1.382,-1.382,-1.382,-1.382,-1.382,0,-1.3705,-1.3711,-1.3721,-1.3734,-1.3742,-1.3742,-1.3752,-1.3759,-1.3769,-1.3777,-1.3786,-1.3799,-1.3809,-1.3816,-1.3826,-1.3832,-1.3832,-1.3834,-1.3834,-1.3834,-1.3822,-1.3819,-1.3834,-1.3834,-1.3834,-1.3834,-1.3834,-1.3834,-1.3716,-1.373,-1.3733,-1.375,-1.3756,-1.3768,-1.3773,-1.378,-1.3786,-1.38,-1.3809,-1.3813,-1.3821,-1.3831,-1.384,-1.3842,-1.3845,-1.3847,-1.3848,-1.3837,-1.3836,-1.3834,-1.3831,-1.3848,-1.3848,-1.386,-1.386,-1.386]},{"header":{"parameterUnit":"m.s-1","parameterCategory":1,"la1":30.2991,"la2":30.254,"lo1":-89.0895,"lo2":-89.0444,"dy":0.0017,"dx":0.0017,"nx":28,"ny":28,"refTime":"2024-05-10T21:00:00:Z","depth":0,"parameterNumber":3,"parameterNumberName":"V-component_of_WINDS"},"data":[0,0,0,0,0,0,0,0,0,0,0,0,0,0,0,0,0,0,0,0,0,0,0,0,0,0,0,0,0,0,0,0,0,0,0,0,0,0,0,0,0,0,0,0,0,0,0,0,0,0,0,0,0,0,0,0,0,0,-2.7763,-2.7765,0,-2.7933,-2.7935,-2.7937,-2.7994,-2.7994,-2.7993,-2.7992,-2.8162,-2.8168,-2.8173,0,0,0,0,0,0,0,0,0,0,0,0,0,-2.7483,-2.7488,-2.7763,-2.7765,-2.7767,-2.7933,-2.7935,-2.7938,-2.7995,-2.7994,-2.7993,-2.7992,-2.8161,-2.8167,-2.8173,0,0,0,0,0,0,0,0,0,0,0,0,0,-2.7624,-2.749,-2.7762,-2.7816,-2.7822,-2.7933,-2.7936,-2.7938,-2.7995,-2.7994,-2.7993,-2.7992,-2.8159,-2.8166,-2.8174,-2.8243,0,0,-2.8198,-2.8201,0,0,0,0,0,0,0,0,-2.7616,-2.7634,-2.7806,-2.7812,-2.782,-2.7942,-2.7899,-2.804,-2.7995,-2.7929,-2.7992,-2.7991,-2.809,-2.8103,-2.8137,-2.8251,-2.8258,-2.8198,-2.8203,-2.8206,-2.8209,0,0,0,0,0,0,0,-2.7606,-2.7627,-2.783,-2.7808,-2.7817,-2.783,-2.7849,-2.7926,-2.8013,-2.7935,-2.7939,-2.7959,-2.8093,-2.8129,-2.8141,-2.8261,-2.8198,-2.8205,-2.821,-2.8213,-2.8441,-2.8442,0,0,0,0,0,0,-2.7588,-2.7619,-2.7825,-2.7835,-2.7713,-2.7836,-2.7857,-2.7903,-2.8012,-2.8028,-2.796,-2.7961,-2.8117,-2.8132,-2.8148,-2.8236,-2.8206,-2.8214,-2.8218,-2.8439,-2.8441,-2.8443,0,0,0,0,0,0,-2.7582,-2.7606,-2.7818,-2.7729,-2.7757,-2.7842,-2.7894,-2.7907,-2.7944,-2.8031,-2.8046,-2.7981,-2.8117,-2.8137,-2.8219,-2.8243,-2.8217,-2.8224,-2.8438,-2.844,-2.8442,-2.8412,0,0,0,0,0,0,-2.7574,-2.7603,-2.7631,-2.7729,-2.7761,-2.7887,-2.7895,-2.7911,-2.7958,-2.7961,-2.8055,-2.807,-2.8117,-2.8207,-2.8227,-2.8253,-2.823,-2.8436,-2.8439,-2.8441,-2.8412,-2.8413,-2.8415,0,0,0,0,0,-2.7564,-2.7614,-2.7632,-2.7656,-2.7797,-2.7888,-2.7907,-2.7962,-2.7959,-2.7987,-2.8044,-2.8067,-2.8237,-2.8215,-2.8238,-2.8266,-2.8435,-2.8438,-2.8441,-2.8411,-2.8413,-2.8415,0,0,0,0,0,0,-2.7515,-2.7628,-2.7649,-2.7733,-2.7801,-2.7898,-2.7935,-2.7962,-2.803,-2.803,-2.8094,-2.8115,-2.8193,-2.8238,-2.8212,-2.834,-2.8337,-2.8345,-2.8307,-2.8309,-2.8311,-2.8297,-2.8237,0,0,0,0,0,-2.7514,-2.758,-2.7675,-2.774,-2.7774,-2.7848,-2.789,-2.7927,-2.7999,-2.8027,-2.809,-2.8158,-2.8227,-2.8271,-2.8339,-2.8419,-2.8441,-2.845,-2.8452,-2.8452,-2.8458,-2.8504,-2.851,-2.8453,-2.8453,-2.8453,0,0,-2.7513,-2.7583,-2.762,-2.7732,-2.7789,-2.7855,-2.7872,-2.794,-2.799,-2.8037,-2.8119,-2.8168,-2.8248,-2.833,-2.8369,-2.837,-2.8479,-2.8457,-2.8456,-2.8462,-2.8508,-2.8513,-2.8518,-2.8455,-2.8455,-2.8454,0,0,-2.7544,-2.7604,-2.7665,-2.7723,-2.781,-2.786,-2.7874,-2.7968,-2.8003,-2.8087,-2.8125,-2.8184,-2.8301,-2.8358,-2.8401,-2.8457,-2.8481,-2.8477,-2.8484,-2.8529,-2.8533,-2.8537,-2.8557,-2.8563,-2.8483,-2.8483,-2.8483,0,-2.753,-2.7632,-2.7693,-2.776,-2.7809,-2.7858,-2.792,-2.7972,-2.8076,-2.8108,-2.8109,-2.8259,-2.8316,-2.8412,-2.8426,-2.846,-2.8478,-2.8466,-2.8528,-2.8533,-2.8538,-2.8557,-2.8564,-2.8482,-2.8482,-2.8482,-2.8482,0,-2.7612,-2.7682,-2.7721,-2.7823,-2.7875,-2.794,-2.8009,-2.8056,-2.8089,-2.8138,-2.8224,-2.8295,-2.8379,-2.8405,-2.8437,-2.8506,-2.8504,-2.8516,-2.8514,-2.8541,-2.856,-2.8568,-2.848,-2.8481,-2.8481,-2.8481,0,0,-2.7614,-2.7751,-2.7764,-2.7811,-2.7912,-2.7967,-2.8034,-2.8118,-2.8156,-2.8227,-2.8284,-2.8384,-2.8396,-2.8446,-2.8485,-2.8524,-2.8564,-2.8531,-2.8534,-2.8534,-2.8645,-2.8634,-2.8642,-2.8582,-2.8583,-2.8585,-2.8638,0,-2.7657,-2.778,-2.7838,-2.7935,-2.8001,-2.805,-2.8108,-2.8176,-2.8225,-2.8287,-2.8341,-2.8411,-2.8421,-2.8452,-2.8493,-2.855,-2.8587,-2.8547,-2.8634,-2.8637,-2.8611,-2.8652,-2.8642,-2.8688,-2.8646,-2.8647,-2.8648,0,-2.7724,-2.7797,-2.7901,-2.7996,-2.8025,-2.8077,-2.816,-2.8219,-2.8297,-2.833,-2.8387,-2.8426,-2.8498,-2.8493,-2.8593,-2.8565,-2.8604,-2.8638,-2.8641,-2.865,-2.8642,-2.8661,-2.8704,-2.8711,-2.866,-2.8659,-2.8659,0,-2.7714,-2.7839,-2.7918,-2.7957,-2.8069,-2.8104,-2.8152,-2.823,-2.8278,-2.835,-2.8381,-2.846,-2.8503,-2.8563,-2.8622,-2.8613,-2.8716,-2.8716,-2.8745,-2.8743,-2.8762,-2.876,-2.8811,-2.879,-2.879,-2.879,-2.8789,0,-2.7756,-2.7818,-2.7915,-2.7963,-2.8034,-2.81,-2.8168,-2.8219,-2.8288,-2.8347,-2.8394,-2.8448,-2.8523,-2.8586,-2.8633,-2.8708,-2.8728,-2.8756,-2.8767,-2.8751,-2.8747,-2.8776,-2.8774,-2.8792,-2.8791,-2.8791,-2.879,0,-2.7756,-2.7824,-2.7913,-2.8014,-2.8041,-2.8088,-2.8174,-2.8222,-2.8275,-2.8348,-2.8369,-2.8451,-2.8528,-2.8594,-2.8694,-2.8726,-2.8804,-2.8818,-2.8778,-2.8784,-2.8808,-2.8804,-2.8878,-2.8891,-2.8862,-2.8862,-2.8862,0,-2.7778,-2.7827,-2.7933,-2.7977,-2.8025,-2.8095,-2.8144,-2.8212,-2.8261,-2.8355,-2.8392,-2.8473,-2.8542,-2.8663,-2.873,-2.8808,-2.8824,-2.8845,-2.8835,-2.8818,-2.8823,-2.8819,-2.8824,-2.8844,-2.8844,-2.8844,-2.8844,0,-2.7809,-2.7841,-2.7911,-2.7994,-2.8052,-2.812,-2.8189,-2.8222,-2.8302,-2.8355,-2.8436,-2.8489,-2.8593,-2.8673,-2.8759,-2.8808,-2.8839,-2.8847,-2.8858,-2.8841,-2.8815,-2.8829,-2.8778,-2.8844,-2.8844,-2.8844,-2.8844,-2.8844,-2.782,-2.7866,-2.7949,-2.8026,-2.8086,-2.815,-2.8201,-2.8261,-2.8329,-2.8421,-2.8456,-2.8538,-2.8617,-2.8736,-2.8785,-2.885,-2.8854,-2.887,-2.8873,-2.8876,-2.8873,-2.8806,-2.8866,-2.8866,-2.8866,-2.8866,-2.8867,0,-2.7853,-2.7909,-2.798,-2.8076,-2.8137,-2.8164,-2.8242,-2.829,-2.8363,-2.8434,-2.8501,-2.8594,-2.8673,-2.8748,-2.883,-2.8867,-2.8884,-2.8886,-2.8883,-2.8894,-2.8865,-2.8847,-2.8872,-2.8872,-2.8872,-2.8872,-2.8872,-2.8872,-2.7877,-2.7956,-2.7998,-2.8108,-2.8164,-2.8246,-2.8289,-2.8348,-2.8405,-2.8508,-2.8574,-2.8623,-2.8696,-2.8784,-2.8857,-2.8877,-2.8905,-2.8903,-2.8927,-2.8898,-2.8896,-2.8895,-2.8878,-2.8909,-2.8909,-2.8951,-2.8951,-2.8952]}]]